| time (UTC) | temp F | wind direction | speed MPH | gust MPH | rain 1hr in | rain 24hr in | rain mn in | humidity % | barometer mb |
| 20260503182040 | 57 | 127 | 1.0 | 11.0 | 0.00 | 0.02 | 0.02 | 79 | 1013.7 |
| 20260503181603 | 57 | 136 | 2.0 | 11.0 | 0.00 | 0.02 | 0.02 | 79 | 1013.6 |
| 20260503181043 | 57 | 229 | 2.0 | 6.0 | 0.00 | 0.02 | 0.02 | 79 | 1013.7 |
| 20260503180542 | 57 | 201 | 3.0 | 6.0 | 0.00 | 0.02 | 0.02 | 80 | 1013.6 |
| 20260503180049 | 57 | 150 | 1.0 | 5.0 | 0.00 | 0.02 | 0.02 | 80 | 1013.6 |
| 20260503175545 | 57 | 203 | 1.0 | 3.0 | 0.00 | 0.02 | 0.02 | 80 | 1013.5 |
| 20260503175039 | 57 | 117 | 1.0 | 3.0 | 0.00 | 0.02 | 0.02 | 80 | 1013.5 |
| 20260503174550 | 57 | 193 | 0.0 | 3.0 | 0.00 | 0.02 | 0.02 | 81 | 1013.5 |
| 20260503174042 | 57 | 236 | 1.0 | 3.0 | 0.00 | 0.02 | 0.02 | 81 | 1013.5 |
| 20260503173542 | 57 | 221 | 0.0 | 3.0 | 0.00 | 0.02 | 0.02 | 82 | 1013.4 |
| 20260503173054 | 57 | 119 | 1.0 | 3.0 | 0.01 | 0.02 | 0.02 | 82 | 1013.6 |
| 20260503172544 | 57 | 131 | 0.0 | 3.0 | 0.01 | 0.02 | 0.02 | 83 | 1013.6 |
| 20260503172042 | 57 | 145 | 0.0 | 3.0 | 0.02 | 0.02 | 0.02 | 83 | 1013.7 |
| 20260503171548 | 57 | 221 | 0.0 | 3.0 | 0.02 | 0.02 | 0.02 | 82 | 1013.9 |
| 20260503171042 | 57 | 205 | 0.0 | 2.0 | 0.02 | 0.02 | 0.02 | 82 | 1013.9 |
| 20260503170541 | 57 | 0 | 0.0 | 4.0 | 0.02 | 0.02 | 0.02 | 82 | 1013.9 |
| 20260503150538 | 65 | 231 | 2.0 | 11.0 | 0.00 | 0.00 | 0.00 | 55 | 1013.0 |
| 20260503131044 | 68 | 162 | 1.0 | 8.0 | 0.00 | 0.00 | 0.00 | 50 | 1013.5 |
| 20260503130543 | 68 | 131 | 1.0 | 8.0 | 0.00 | 0.00 | 0.00 | 50 | 1013.6 |
| 20260503110539 | 69 | 159 | 3.0 | 8.0 | 0.00 | 0.00 | 0.00 | 43 | 1013.6 |
| 20260503081617 | 64 | 70 | 5.0 | 12.0 | 0.00 | 0.00 | 0.00 | 47 | 1014.3 |
| 20260503081038 | 64 | 227 | 2.0 | 9.0 | 0.00 | 0.00 | 0.00 | 48 | 1014.4 |
| 20260503080538 | 64 | 252 | 2.0 | 13.0 | 0.00 | 0.00 | 0.00 | 49 | 1014.4 |
| 20260503080108 | 64 | 135 | 4.0 | 15.0 | 0.00 | 0.00 | 0.00 | 49 | 1014.4 |
| 20260503072539 | 64 | 153 | 5.0 | 12.0 | 0.00 | 0.00 | 0.00 | 51 | 1014.4 |
| 20260503072038 | 64 | 212 | 5.0 | 12.0 | 0.00 | 0.00 | 0.00 | 50 | 1014.2 |
| 20260503071551 | 63 | 194 | 4.0 | 10.0 | 0.00 | 0.00 | 0.00 | 51 | 1014.3 |
| 20260503071038 | 63 | 146 | 3.0 | 8.0 | 0.00 | 0.00 | 0.00 | 52 | 1014.3 |
| 20260503070538 | 63 | 108 | 3.0 | 8.0 | 0.00 | 0.00 | 0.00 | 52 | 1014.3 |
| 20260503055041 | 58 | 155 | 1.0 | 8.0 | 0.00 | 0.00 | 0.00 | 57 | 1014.2 |
| 20260503054555 | 58 | 165 | 2.0 | 8.0 | 0.00 | 0.00 | 0.00 | 57 | 1014.1 |
| 20260503054043 | 58 | 86 | 1.0 | 6.0 | 0.00 | 0.00 | 0.00 | 57 | 1014.1 |
| 20260503053542 | 58 | 123 | 1.0 | 6.0 | 0.00 | 0.00 | 0.00 | 56 | 1014.2 |
| 20260503053053 | 59 | 146 | 1.0 | 6.0 | 0.00 | 0.00 | 0.00 | 56 | 1014.2 |
| 20260503052544 | 59 | 124 | 3.0 | 6.0 | 0.00 | 0.00 | 0.00 | 55 | 1014.2 |
| 20260503052043 | 59 | 162 | 3.0 | 8.0 | 0.00 | 0.00 | 0.00 | 56 | 1014.2 |
| 20260503051552 | 59 | 127 | 2.0 | 8.0 | 0.00 | 0.00 | 0.00 | 56 | 1014.1 |
| 20260503051043 | 59 | 124 | 3.0 | 8.0 | 0.00 | 0.00 | 0.00 | 56 | 1013.9 |
| 20260503050542 | 59 | 165 | 2.0 | 8.0 | 0.00 | 0.00 | 0.00 | 56 | 1013.9 |
| 20260503050051 | 59 | 166 | 2.0 | 8.0 | 0.00 | 0.00 | 0.00 | 55 | 1014.0 |
| 20260503045542 | 59 | 150 | 2.0 | 8.0 | 0.00 | 0.00 | 0.00 | 56 | 1014.1 |
| 20260503045043 | 59 | 113 | 4.0 | 10.0 | 0.00 | 0.00 | 0.00 | 56 | 1014.1 |
| 20260503044604 | 59 | 140 | 3.0 | 10.0 | 0.00 | 0.00 | 0.00 | 56 | 1014.1 |
| 20260503044042 | 59 | 101 | 3.0 | 7.0 | 0.00 | 0.00 | 0.00 | 56 | 1014.0 |
| 20260503043542 | 59 | 182 | 2.0 | 6.0 | 0.00 | 0.00 | 0.00 | 56 | 1013.9 |
| 20260503043059 | 59 | 139 | 1.0 | 7.0 | 0.00 | 0.00 | 0.00 | 55 | 1013.9 |
| 20260503042542 | 59 | 150 | 2.0 | 7.0 | 0.00 | 0.00 | 0.00 | 55 | 1013.7 |
| 20260503042044 | 59 | 105 | 3.0 | 7.0 | 0.00 | 0.00 | 0.00 | 55 | 1014.0 |
| 20260503041553 | 59 | 134 | 3.0 | 7.0 | 0.00 | 0.00 | 0.00 | 55 | 1013.9 |
| 20260503041043 | 59 | 114 | 1.0 | 7.0 | 0.00 | 0.00 | 0.00 | 55 | 1014.0 |
| 20260503040542 | 59 | 139 | 2.0 | 6.0 | 0.00 | 0.00 | 0.00 | 54 | 1013.9 |
| 20260503040100 | 59 | 147 | 2.0 | 9.0 | 0.00 | 0.00 | 0.00 | 54 | 1014.1 |
| 20260503035542 | 60 | 165 | 2.0 | 9.0 | 0.00 | 0.00 | 0.00 | 54 | 1014.1 |
| 20260503035042 | 60 | 128 | 2.0 | 7.0 | 0.00 | 0.00 | 0.00 | 54 | 1014.0 |
| 20260503034555 | 60 | 165 | 1.0 | 7.0 | 0.00 | 0.00 | 0.00 | 54 | 1014.0 |
| 20260503034044 | 60 | 132 | 2.0 | 7.0 | 0.00 | 0.00 | 0.00 | 53 | 1014.0 |
| 20260503033545 | 60 | 191 | 1.0 | 6.0 | 0.00 | 0.00 | 0.00 | 53 | 1014.2 |
| 20260503033105 | 60 | 160 | 2.0 | 7.0 | 0.00 | 0.00 | 0.00 | 53 | 1014.2 |
| 20260503032542 | 60 | 0 | 1.0 | 8.0 | 0.00 | 0.00 | 0.00 | 53 | 1014.2 |
| 20260503032046 | 60 | 118 | 3.0 | 8.0 | 0.00 | 0.00 | 0.00 | 52 | 1014.2 |
| 20260503031600 | 60 | 139 | 3.0 | 8.0 | 0.00 | 0.00 | 0.00 | 52 | 1014.2 |
| 20260503031043 | 60 | 154 | 1.0 | 6.0 | 0.00 | 0.00 | 0.00 | 52 | 1014.3 |
| 20260503030545 | 61 | 150 | 2.0 | 7.0 | 0.00 | 0.00 | 0.00 | 52 | 1014.2 |
| 20260503030046 | 61 | 153 | 3.0 | 7.0 | 0.00 | 0.00 | 0.00 | 51 | 1014.3 |
| 20260503025542 | 61 | 127 | 1.0 | 8.0 | 0.00 | 0.00 | 0.00 | 52 | 1014.2 |
| 20260503025040 | 61 | 0 | 1.0 | 8.0 | 0.00 | 0.00 | 0.00 | 51 | 1014.4 |
| 20260503024621 | 61 | 119 | 2.0 | 8.0 | 0.00 | 0.00 | 0.00 | 51 | 1014.2 |
| 20260503024044 | 61 | 141 | 2.0 | 9.0 | 0.00 | 0.00 | 0.00 | 51 | 1014.4 |
| 20260503023547 | 61 | 173 | 4.0 | 9.0 | 0.00 | 0.00 | 0.00 | 51 | 1014.5 |
| 20260503023105 | 61 | 0 | 2.0 | 9.0 | 0.00 | 0.00 | 0.00 | 52 | 1014.5 |
| 20260503022605 | 61 | 165 | 1.0 | 7.0 | 0.00 | 0.00 | 0.00 | 53 | 1014.5 |
| 20260503022046 | 61 | 105 | 1.0 | 7.0 | 0.00 | 0.00 | 0.00 | 53 | 1014.6 |
| 20260503021600 | 61 | 157 | 1.0 | 8.0 | 0.00 | 0.00 | 0.00 | 54 | 1014.6 |
| 20260503021042 | 61 | 169 | 2.0 | 8.0 | 0.00 | 0.00 | 0.00 | 54 | 1014.7 |
| 20260503020543 | 61 | 110 | 2.0 | 6.0 | 0.00 | 0.00 | 0.00 | 54 | 1014.7 |
| 20260503020052 | 61 | 129 | 1.0 | 6.0 | 0.00 | 0.00 | 0.00 | 54 | 1014.6 |
| 20260503015546 | 62 | 115 | 1.0 | 8.0 | 0.00 | 0.00 | 0.00 | 54 | 1014.6 |
| 20260503015041 | 62 | 191 | 1.0 | 8.0 | 0.00 | 0.00 | 0.00 | 53 | 1014.8 |
| 20260503014554 | 62 | 212 | 2.0 | 6.0 | 0.00 | 0.00 | 0.00 | 52 | 1014.9 |
| 20260503014042 | 62 | 133 | 1.0 | 7.0 | 0.00 | 0.00 | 0.00 | 52 | 1014.8 |
| 20260503013544 | 63 | 120 | 2.0 | 7.0 | 0.00 | 0.00 | 0.00 | 52 | 1014.8 |
| 20260503013053 | 62 | 131 | 2.0 | 7.0 | 0.00 | 0.00 | 0.00 | 52 | 1014.8 |
| 20260503012549 | 62 | 158 | 1.0 | 7.0 | 0.00 | 0.00 | 0.00 | 52 | 1014.9 |
| 20260503012043 | 62 | 131 | 1.0 | 6.0 | 0.00 | 0.00 | 0.00 | 53 | 1014.9 |
| 20260503011557 | 62 | 126 | 2.0 | 9.0 | 0.00 | 0.00 | 0.00 | 53 | 1014.9 |
| 20260503011043 | 62 | 176 | 2.0 | 9.0 | 0.00 | 0.00 | 0.00 | 54 | 1014.9 |
| 20260503010539 | 62 | 125 | 1.0 | 7.0 | 0.00 | 0.00 | 0.00 | 54 | 1014.9 |
| 20260503010047 | 62 | 105 | 2.0 | 7.0 | 0.00 | 0.00 | 0.00 | 55 | 1015.0 |
| 20260503005543 | 62 | 125 | 3.0 | 7.0 | 0.00 | 0.00 | 0.00 | 56 | 1014.9 |
| 20260503005043 | 62 | 167 | 1.0 | 6.0 | 0.00 | 0.00 | 0.00 | 56 | 1015.1 |
| 20260503004548 | 62 | 0 | 1.0 | 8.0 | 0.00 | 0.00 | 0.00 | 57 | 1015.1 |
| 20260503004042 | 62 | 169 | 2.0 | 8.0 | 0.00 | 0.00 | 0.00 | 56 | 1015.1 |
| 20260503003544 | 62 | 138 | 1.0 | 9.0 | 0.00 | 0.00 | 0.00 | 56 | 1015.0 |
| 20260503003055 | 62 | 200 | 1.0 | 9.0 | 0.00 | 0.00 | 0.00 | 56 | 1015.3 |
| 20260503002545 | 62 | 126 | 3.0 | 9.0 | 0.00 | 0.00 | 0.00 | 57 | 1015.3 |
| 20260503002042 | 62 | 111 | 2.0 | 9.0 | 0.00 | 0.00 | 0.00 | 58 | 1015.2 |
| 20260503001600 | 62 | 0 | 2.0 | 9.0 | 0.00 | 0.00 | 0.00 | 59 | 1015.3 |
| 20260503001041 | 62 | 187 | 2.0 | 9.0 | 0.00 | 0.00 | 0.00 | 60 | 1015.6 |
| 20260503000542 | 62 | 91 | 1.0 | 6.0 | 0.00 | 0.00 | 0.00 | 61 | 1015.4 |
| 20260503000106 | 62 | 145 | 1.0 | 6.0 | 0.00 | 0.00 | 0.00 | 62 | 1015.4 |
| 20260502235544 | 62 | 135 | 1.0 | 4.0 | 0.00 | 0.00 | 0.00 | 63 | 1015.5 |
| 20260502235043 | 62 | 119 | 1.0 | 4.0 | 0.00 | 0.00 | 0.00 | 63 | 1015.5 |
| 20260502234606 | 62 | 153 | 1.0 | 4.0 | 0.00 | 0.00 | 0.00 | 63 | 1015.6 |
| 20260502234043 | 62 | 131 | 1.0 | 4.0 | 0.00 | 0.00 | 0.00 | 63 | 1015.6 |
| 20260502233545 | 62 | 136 | 0.0 | 4.0 | 0.00 | 0.00 | 0.00 | 63 | 1015.7 |
| 20260502233106 | 62 | 162 | 1.0 | 4.0 | 0.00 | 0.00 | 0.00 | 63 | 1015.7 |
| 20260502232542 | 62 | 139 | 1.0 | 3.0 | 0.00 | 0.00 | 0.00 | 64 | 1015.8 |
| 20260502232041 | 61 | 129 | 0.0 | 3.0 | 0.00 | 0.00 | 0.00 | 65 | 1015.8 |
| 20260502231559 | 60 | 0 | 0.0 | 1.0 | 0.00 | 0.00 | 0.00 | 67 | 1015.9 |
| 20260502231046 | 60 | 0 | 0.0 | 1.0 | 0.00 | 0.00 | 0.00 | 67 | 1015.9 |
| 20260502230543 | 60 | 165 | 0.0 | 1.0 | 0.00 | 0.00 | 0.00 | 68 | 1015.9 |
| 20260502230044 | 60 | 0 | 0.0 | 1.0 | 0.00 | 0.00 | 0.00 | 68 | 1015.9 |
| 20260502225546 | 61 | 0 | 0.0 | 1.0 | 0.00 | 0.00 | 0.00 | 67 | 1015.9 |
| 20260502225042 | 61 | 0 | 0.0 | 1.0 | 0.00 | 0.00 | 0.00 | 67 | 1015.9 |
| 20260502224552 | 61 | 0 | 0.0 | 1.0 | 0.00 | 0.00 | 0.00 | 67 | 1016.0 |
| 20260502224044 | 61 | 0 | 0.0 | 1.0 | 0.00 | 0.00 | 0.00 | 67 | 1015.9 |
| 20260502223540 | 61 | 0 | 0.0 | 1.0 | 0.00 | 0.00 | 0.00 | 67 | 1016.0 |
| 20260502223051 | 60 | 0 | 0.0 | 1.0 | 0.00 | 0.00 | 0.00 | 68 | 1015.9 |
| 20260502222542 | 60 | 0 | 0.0 | 1.0 | 0.00 | 0.00 | 0.00 | 69 | 1016.0 |
| 20260502222042 | 59 | 0 | 0.0 | 0.0 | 0.00 | 0.00 | 0.00 | 70 | 1016.0 |
| 20260502221601 | 59 | 0 | 0.0 | 0.0 | 0.00 | 0.00 | 0.00 | 71 | 1016.1 |
| 20260502221039 | 59 | 0 | 0.0 | 0.0 | 0.00 | 0.00 | 0.00 | 72 | 1016.0 |
| 20260502220543 | 59 | 0 | 0.0 | 1.0 | 0.00 | 0.00 | 0.00 | 72 | 1016.1 |
| 20260502220053 | 59 | 0 | 0.0 | 1.0 | 0.00 | 0.00 | 0.00 | 73 | 1016.1 |
| 20260502215542 | 59 | 0 | 0.0 | 0.0 | 0.00 | 0.00 | 0.00 | 73 | 1016.0 |
| 20260502215044 | 59 | 0 | 0.0 | 0.0 | 0.00 | 0.00 | 0.00 | 72 | 1016.1 |
| 20260502214554 | 60 | 0 | 0.0 | 1.0 | 0.00 | 0.00 | 0.00 | 72 | 1016.2 |
| 20260502214044 | 60 | 0 | 0.0 | 1.0 | 0.00 | 0.00 | 0.00 | 72 | 1016.2 |
| 20260502213542 | 60 | 0 | 0.0 | 0.0 | 0.00 | 0.00 | 0.00 | 72 | 1016.2 |
| 20260502213053 | 60 | 0 | 0.0 | 0.0 | 0.00 | 0.00 | 0.00 | 71 | 1016.3 |
| 20260502212544 | 60 | 0 | 0.0 | 0.0 | 0.00 | 0.00 | 0.00 | 70 | 1016.3 |
| 20260502212043 | 61 | 0 | 0.0 | 0.0 | 0.00 | 0.00 | 0.00 | 70 | 1016.3 |
| 20260502211557 | 61 | 0 | 0.0 | 0.0 | 0.00 | 0.00 | 0.00 | 70 | 1016.4 |
| 20260502211042 | 61 | 0 | 0.0 | 0.0 | 0.00 | 0.00 | 0.00 | 70 | 1016.4 |
| 20260502210540 | 61 | 0 | 0.0 | 0.0 | 0.00 | 0.00 | 0.00 | 70 | 1016.5 |
| 20260502210047 | 61 | 0 | 0.0 | 0.0 | 0.00 | 0.00 | 0.00 | 69 | 1016.6 |
| 20260502205539 | 62 | 0 | 0.0 | 0.0 | 0.00 | 0.00 | 0.00 | 69 | 1016.6 |
| 20260502205043 | 62 | 0 | 0.0 | 0.0 | 0.00 | 0.00 | 0.00 | 68 | 1016.7 |
| 20260502204553 | 63 | 0 | 0.0 | 1.0 | 0.00 | 0.00 | 0.00 | 68 | 1016.7 |
| 20260502204044 | 63 | 0 | 0.0 | 3.0 | 0.00 | 0.00 | 0.00 | 68 | 1016.6 |
| 20260502203543 | 64 | 0 | 0.0 | 5.0 | 0.00 | 0.00 | 0.00 | 68 | 1016.7 |
| 20260502203101 | 65 | 202 | 0.0 | 5.0 | 0.00 | 0.00 | 0.00 | 64 | 1016.7 |
| 20260502202543 | 64 | 91 | 0.0 | 3.0 | 0.00 | 0.00 | 0.00 | 64 | 1016.4 |
| 20260502202043 | 64 | 0 | 0.0 | 10.0 | 0.00 | 0.00 | 0.00 | 68 | 1016.6 |
| 20260502201554 | 65 | 24 | 1.0 | 10.0 | 0.00 | 0.00 | 0.00 | 67 | 1016.8 |
| 20260502201043 | 67 | 49 | 1.0 | 10.0 | 0.00 | 0.00 | 0.00 | 60 | 1016.7 |
| 20260502200545 | 67 | 129 | 3.0 | 10.0 | 0.00 | 0.00 | 0.00 | 55 | 1016.3 |
| 20260502200052 | 67 | 141 | 4.0 | 10.0 | 0.00 | 0.00 | 0.00 | 55 | 1016.3 |
| 20260502195541 | 67 | 142 | 3.0 | 9.0 | 0.00 | 0.00 | 0.00 | 56 | 1016.2 |
| 20260502195040 | 67 | 203 | 3.0 | 9.0 | 0.00 | 0.00 | 0.00 | 56 | 1016.1 |
| 20260502194557 | 67 | 141 | 2.0 | 6.0 | 0.00 | 0.00 | 0.00 | 57 | 1016.0 |
| 20260502194039 | 66 | 162 | 2.0 | 7.0 | 0.00 | 0.00 | 0.00 | 58 | 1016.2 |
| 20260502193542 | 66 | 139 | 0.0 | 7.0 | 0.00 | 0.00 | 0.00 | 59 | 1016.3 |
| 20260502193057 | 66 | 162 | 1.0 | 7.0 | 0.00 | 0.00 | 0.00 | 60 | 1016.2 |
| 20260502192544 | 65 | 155 | 1.0 | 6.0 | 0.00 | 0.00 | 0.00 | 61 | 1016.2 |
| 20260502192043 | 65 | 186 | 1.0 | 5.0 | 0.00 | 0.00 | 0.00 | 64 | 1016.2 |
| 20260502191558 | 65 | 127 | 0.0 | 3.0 | 0.00 | 0.00 | 0.00 | 64 | 1016.3 |
| 20260502191043 | 65 | 127 | 0.0 | 3.0 | 0.00 | 0.00 | 0.00 | 65 | 1016.3 |
| 20260502190541 | 65 | 123 | 0.0 | 3.0 | 0.00 | 0.00 | 0.00 | 65 | 1016.4 |
| 20260502190055 | 65 | 118 | 0.0 | 5.0 | 0.00 | 0.00 | 0.00 | 66 | 1016.5 |
| 20260502185542 | 65 | 148 | 1.0 | 5.0 | 0.00 | 0.00 | 0.00 | 66 | 1016.4 |
| 20260502185041 | 65 | 134 | 1.0 | 4.0 | 0.00 | 0.00 | 0.00 | 66 | 1016.6 |
| 20260502184553 | 65 | 131 | 0.0 | 5.0 | 0.00 | 0.00 | 0.00 | 67 | 1016.6 |
| 20260502184047 | 65 | 147 | 1.0 | 5.0 | 0.00 | 0.00 | 0.00 | 66 | 1016.6 |
| 20260502183539 | 66 | 115 | 1.0 | 5.0 | 0.00 | 0.00 | 0.00 | 67 | 1016.5 |
| 20260502183057 | 66 | 143 | 1.0 | 4.0 | 0.00 | 0.00 | 0.00 | 65 | 1016.7 |
| 20260502182541 | 66 | 135 | 0.0 | 1.0 | 0.00 | 0.00 | 0.00 | 63 | 1016.7 |